Flag for China Weather past 2 weeks in Tianjin, Tianjin Municipality, China

Now
59 °F

Fog.


Feels Like: 58 °F
Forecast: 49 / 65 °F
Wind: 8 mph from West

Location: Tianjin / Zhangguizhu

Current Time: Oct 25, 2014 at 11:00:22 AM

Latest Report: Oct 25, 2014 at 10:30 AM


Visibility: 0 mi

Pressure: 29.89 "Hg

Humidity: 94%

Dew point: 57 °F

Location of TianjinLocation

Historic Weather in Tianjin — Graph

°F

Tianjin temperature yesterday

Maximum temperature yesterday: 66 °F (at 1:30 PM)
Minimum temperature yesterday: 55 °F (at 12:30 AM)
Average temperature yesterday: 61 °F

Past Weeks' High & Low Weather Summary

 TemperatureHumidityPressure
High79 °F (Oct 18, 2:00 PM)100% (Oct 10, 11:30 PM)30.48 "Hg (Oct 10, 11:30 PM)
Low41 °F (Oct 13, 6:30 AM)13% (Oct 15, 2:00 PM)29.80 "Hg (Oct 24, 3:00 PM)
Average59 °F60%30.10 "Hg
* Reported Oct 10 10:00 AM — Oct 25 10:00 AM, Tianjin, Weather by CustomWeather, © 2014

Note: Actual official high and low records may vary slightly from our data, if they occured in-between our weather recording intervals... More about our weather records

Advertising

Tianjin weather history for previous 24 hours

 ConditionsComfort  
Time TempWeatherWind HumidityBarometerVisibility
10:00 AM
Oct 25
57 °FFog.3 mph100%29.89 "Hg1 mi
9:30 AM57 °FFog.3 mph100%29.89 "Hg0 mi
9:00 AM55 °FFog.1 mph100%29.89 "Hg0 mi
8:30 AM54 °FFog.3 mph100%29.89 "Hg0 mi
8:00 AM52 °FFog.3 mph100%29.89 "Hg0 mi
7:30 AM52 °FFog.3 mph100%29.86 "Hg0 mi
7:00 AM50 °FFog.3 mph100%29.86 "Hg0 mi
6:30 AM50 °FFog.6 mph100%29.86 "Hg0 mi
6:00 AM54 °FFog.1 mph100%29.83 "Hg1 mi
5:30 AM52 °FFog.3 mph100%29.83 "Hg1 mi
5:00 AM52 °FFog.1 mph100%29.83 "Hg1 mi
4:30 AM52 °FFog.1 mph94%29.83 "Hg1 mi
4:00 AM52 °FFog.1 mph100%29.83 "Hg0 mi
3:30 AM52 °FFog.1 mph100%29.83 "Hg0 mi
3:00 AM54 °FFog.1 mph94%29.83 "Hg0 mi
2:30 AM54 °FFog.1 mph100%29.86 "Hg0 mi
2:00 AM57 °FFog.1 mph94%29.86 "Hg0 mi
1:30 AM57 °FFog.3 mph100%29.86 "Hg0 mi
1:00 AM57 °FFog.3 mph94%29.86 "Hg0 mi
12:30 AM57 °FFog.1 mph94%29.86 "Hg0 mi
12:00 AM59 °FFog.1 mph94%29.86 "Hg1 mi
11:30 PM
Oct 24
59 °FFog.3 mph94%29.86 "Hg1 mi
11:00 PM59 °FFog.1 mph94%29.86 "Hg1 mi
10:30 PM59 °FFog.1 mph94%29.89 "Hg1 mi
10:00 PM59 °FFog.1 mph88%29.89 "Hg1 mi
9:30 PM59 °FFog.1 mph88%29.89 "Hg1 mi
9:00 PM59 °FFog.3 mph88%29.86 "Hg1 mi
8:30 PM61 °FFog.3 mph88%29.86 "Hg1 mi
8:00 PM59 °FFog.3 mph88%29.86 "Hg1 mi
7:30 PM59 °FFog.1 mph88%29.86 "Hg1 mi
7:00 PM61 °FFog.3 mph83%29.86 "Hg1 mi
6:30 PM61 °FFog.3 mph83%29.86 "Hg1 mi
6:00 PM61 °FFog.3 mph83%29.83 "Hg1 mi
5:30 PM63 °FFog.1 mph83%29.83 "Hg1 mi
5:00 PM64 °FFog.1 mph78%29.83 "Hg1 mi
4:30 PM66 °FFog.1 mph73%29.83 "Hg1 mi
4:00 PM66 °FFog.3 mph73%29.80 "Hg1 mi
3:30 PM66 °FFog.3 mph73%29.80 "Hg1 mi
3:00 PM66 °FFog.3 mph73%29.80 "Hg1 mi
2:30 PM66 °FFog.6 mph73%29.83 "Hg1 mi
2:00 PM66 °FFog.6 mph73%29.83 "Hg1 mi
1:30 PM66 °FFog.6 mph73%29.83 "Hg1 mi
1:00 PM64 °FFog.6 mph78%29.83 "Hg1 mi
12:30 PM64 °FFog.6 mph78%29.86 "Hg1 mi
12:00 PM64 °FFog.8 mph78%29.86 "Hg1 mi
11:30 AM64 °FFog.8 mph78%29.89 "Hg1 mi
Weather by CustomWeather, © 2014

See weather overviewHow to use our weather pages